Regional Weather Roundup
Issued by NWS Upton, NY

Home | Current Version | Previous Version | Text Only | Print | Product List | Glossary On
Versions: 1 2 3 4 5 6 7 8 9 10 11 12 13 14 15 16 17 18 19 20 21 22 23 24 25 26 27 28
000
ASUS41 KOKX 141609
RWROKX

REGIONAL WEATHER ROUNDUP
NATIONAL WEATHER SERVICE NEW YORK NY
1100 AM EST THU DEC 14 2017

NOTE: "FAIR" INDICATES FEW OR NO CLOUDS BELOW 12,000 FEET WITH NO
SIGNIFICANT WEATHER AND/OR OBSTRUCTIONS TO VISIBILITY.

NYZ071-072-176-178-NJZ106-104-141700-
NEW YORK CITY METRO AREA

CITY           SKY/WX    TMP DP  RH WIND       PRES   REMARKS
Central Park   PTSUNNY   28  21  75 N7        29.73R WCI  21
Bronx Bot Gard   N/A     30  19  64 W10       29.71F WCI  21
Bronx Lehman C NOT AVBL
LaGuardia APRT PTSUNNY   29  21  72 N15       29.72R WCI  18
Queens College NOT AVBL
Kennedy INTL   MOSUNNY   28  22  78 N10       29.73R WCI  19
Breezy Point     N/A    N/A N/A N/A NW8         N/A
Brooklyn Coll  NOT AVBL
Staten Island  NOT AVBL
Newark/Liberty MOSUNNY   29  19  66 NW16      29.73R WCI  17
Teterboro      MOSUNNY   28  18  66 N8        29.72R WCI  20
$$

NYZ177-179-078>081-141700-
LONG ISLAND NEW YORK

CITY           SKY/WX    TMP DP  RH WIND       PRES   REMARKS
Jones Beach      N/A    N/A N/A N/A N14         N/A
Wantagh        NOT AVBL
Matinecock PT    N/A    N/A N/A N/A NW9         N/A
Farmingdale    PTSUNNY   28  21  75 N9        29.70R WCI  19
MacArthur/ISP  FLURRIES  27  23  85 N12       29.69R WCI  17
Shirley        CLOUDY    27  23  85 N10       29.70R WCI  17
Mt Sinai Harb    N/A    N/A N/A N/A N8          N/A
Westhampton    CLOUDY    27  23  85 N12       29.69R WCI  17
East Hampton   CLOUDY    26  21  84 N10       29.67S WCI  15
Southold       NOT AVBL
Montauk          N/A     28  23  81 N10       29.67R WCI  19
$$

NYZ052-065-067-141700-
HUDSON VALLEY

CITY           SKY/WX    TMP DP  RH WIND       PRES   REMARKS
White Plains   MOSUNNY   26  17  68 NW7       29.68R WCI  18
Larchmont Harb   N/A    N/A N/A N/A NW6         N/A
Croton On Huds   N/A    N/A N/A N/A NW9         N/A
Somers         NOT AVBL
Brewster       NOT AVBL
Newburgh       MOSUNNY   25  19  80 NW9       29.71R WCI  15
Montgomery     SUNNY     26  14  60 NW12G18   29.70R WCI  16
Otisville      NOT AVBL
Warwick        NOT AVBL
Suffern        NOT AVBL
Poughkeepsie   MOSUNNY   25  16  68 NW5       29.72R WCI  19
Albany         MOSUNNY   22   7  52 W16G24    29.74R WCI   8
$$

NJZ001-105-106-008-010-013-015-019>022-104-141700-
NEW JERSEY

CITY           SKY/WX    TMP DP  RH WIND       PRES   REMARKS
Newark/Liberty MOSUNNY   29  19  66 NW16      29.73R WCI  17
Teterboro      MOSUNNY   28  18  66 N8        29.72R WCI  20
Caldwell       SUNNY     27  17  66 N5        29.72R WCI  22
Somerville     SUNNY     28  19  69 NW10      29.72R WCI  19
Linden         FAIR      29  20  69 N8        29.73R WCI  21
Perth Amboy      N/A    N/A N/A N/A N10         N/A
Sussex         SUNNY     27  15  61 NW8       29.72R WCI  19
Andover        NOT AVBL
Trenton        SUNNY     30  20  66 NW12G21   29.74R WCI  20
Millville      MOSUNNY   38  26  62 NW21G30   29.76R WCI  28
Atlantic City  SUNNY     41  27  57 NW20G31   29.72R
Wrightstown    MOSUNNY   31  24  75 NW14      29.72R WCI  20
Toms River     PTSUNNY   33  26  75 NW16      29.73R WCI  23
Belmar         MOSUNNY   32  24  72 NW15      29.72R WCI  22
$$

PAZ047>061-062-071-141700-
EASTERN PENNSYLVANIA

CITY           SKY/WX    TMP DP  RH WIND       PRES   REMARKS
Philadelphia   MOSUNNY   33  23  66 NW20G30   29.78R WCI  21
Allentown      PTSUNNY   29  16  58 NW14G23   29.77R WCI  18
Scranton       CLOUDY    22  14  71 NW12G21   29.75R WCI  10
$$

CTZ002-004>006-009-010-012-RIZ004-006-007-MAZ004-011-015-141700-
SOUTHERN NEW ENGLAND
 IN CT

CITY           SKY/WX    TMP DP  RH WIND       PRES   REMARKS
Bradley INTL   MOSUNNY   25  14  63 W7        29.67R WCI  17
Hartford       CLOUDY    25  16  68 W3        29.69R
Danbury        SUNNY     26  15  63 N8        29.69R WCI  18
Wtrbury/Oxford PTSUNNY   25  15  66 N8        29.65R WCI  16
Norwalk Harbor   N/A    N/A N/A N/A NW8         N/A
Bridgeport     PTSUNNY   27  19  72 NW9       29.71R WCI  18
Meriden        CLOUDY    24  16  71 N6        29.69R WCI  17
New Haven      CLOUDY    26  19  74 VRB5      29.70R WCI  20
Chester        PTSUNNY   25  16  68 VRB7G14   29.66R WCI  17
Groton         LGT SNOW  25  18  74 N10       29.67R WCI  15
Wilimantic     PTSUNNY   26  16  65 CALM      29.67R

 IN RI

CITY           SKY/WX    TMP DP  RH WIND       PRES   REMARKS
Providence     CLOUDY    24  18  77 W7        29.66S WCI  16
Block Island   LGT SNOW  26  23  88 N12       29.66R FOG     WCI  16
Westerly       CLOUDY    25  18  74 N10       29.67R WCI  15
 IN MA

CITY           SKY/WX    TMP DP  RH WIND       PRES   REMARKS
Boston         CLOUDY    26   8  46 W13       29.65R WCI  15
Worcester      LGT SNOW  22   8  55 NW8       29.58R WCI  12
Westfield      SUNNY     25  13  60 NW13      29.66R WCI  14
Provincetown   FLURRIES  27  23  85 NW13        N/A  WCI  16
Nantucket      FLURRIES  29  27  92 N13       29.60F WCI  19
$$

ANZ330-335-338-340-345-350-353-355-141700-
COASTAL MARINE OBSERVATIONS


STATION/POSITION TIME  SKY/WX   TEMP    WIND        PRES    VSBY  WAVE
                                AIR SEA DIR/SP/G                  HT/PER
                 (UTC)          (F)     (DEG/KT/KT) (MB)    (MI)  (FT/S)
NY HARB ENTRANCE 1550            32 54  340/ 16/ 19 1005.4          4/ 8
20 S FIRE ISLAND 1450            36 52  320/ 16/ 19 1003.8          7/ 8
GREAT SOUTH BAY  NOT AVBL
HUDSON CANYON    1450            45 56  290/ 23/ 31 1002.2          9/ 8
KINGS POINT      1542            27 43   20/  9/ 13 1007.1
EXECUTION ROCKS  1530            29     350/  8/ 14   N/A
WESTERN LI SOUND NOT AVBL
CENTRAL LI SOUND 1515            26     350/ 10/ 14   N/A           2
ROBBINS REEF     1548            27     320/ 12/ 14 1007.0
$$


>>>>>>>>>>>>>>>>>>>>>>>>>>>> KEY <<<<<<<<<<<<<<<<<<<<<<<<<<<
>                                                          <
>     SKY/WX - Sky Condition/Present Weather               <
>     TMP    - Temperature in Fahrenheit                   <
>     DP     - Dew Point in Fahrenheit                     <
>     RH     - Relative Humidity in Percent                <
>     WIND   - Direction (from) and Speed in MPH           <
>     PRES   - Mean Sea Level Pressure (inches of Hg)      <
>     WCI    - Wind Chill Index                            <
>     VSB    - VISIBILITY IN MILES                         <
>     HX     - HEAT INDEX                                  <
>     TC     - TEMPERATURE IN CELSIUS                      <
>     VRB    - VARIABLE WIND DIRECTION                     <
>                                                          <
>>>>>>>>>>>>>>>>>>>>>>>>>>>> KEY <<<<<<<<<<<<<<<<<<<<<<<<<<<




USA.gov is the U.S. government's official web portal to all federal, state and local government web resources and services.